Location: Amsterdam
(30.7274°N, 84.4357°W)
Time: 05:16:47
(UTC+00:00)

MOZHAYETS 4 - Pass Details

Date: 14 March 2026
Orbit: 642 x 659 km, 98.3° (Epoch: 15 April)

Event Time Altitude Azimuth Distance (km) Brightness Sun altitude
Rises 00:17:00 0° 354° (N) 2,970 11.2 -7.8°
Reaches altitude 10° 00:19:39 10° 338° (NNW) 2,052 10.6 -8.3°
Maximum altitude 00:22:59 21° 290° (WNW) 1,453 10.5 -9.0°
Drops below altitude 10° 00:26:17 10° 242° (WSW) 2,036 11.2 -9.8°
Sets 00:28:55 0° 226° (SW) 2,939 11.7 -10.3°
